SCOUT A DEB, 3591

Orbit data source: Space-Track

SCOUT A DEB, 3591 is space debris in LEO originally from a launch on Thu, 19 May 1966 UTC launched from the Air Force Western Test Range (AFWTR). Debris objects in space refer to the collection of defunct objects orbiting the Earth. Examples of debris include non-operational satellites, rocket bodies, and fragments generated from explosions, collisions, or faulty payload assembly.

Loading next visibility...
Identifier
3591, 1966-041E
Orbit
LEO
Last TLE update
8 hours ago
Origin
Manufacturer
Unknown
Mission
Spacecraft
Bus & Motor
Unknown
Mass
Unknown
Launch date (UTC)
1966-05-19 (59 years ago)
Launch vehicle
Unknown
Launch site
Air Force Western Test Range (AFWTR)
Object type
Payload
Rocket body
Debris
Shape & HBR
Unknown
Radar Cross Section
Small (<0.1 m²)

Expand to show TLE details & history

TLE from 8 hours ago
0 SCOUT A DEB
1  3591U 66041E   25199.39915449  .00000013  00000-0  10441-5 0  9994
2  3591  90.2147  74.5809 0089277 105.7853 255.3195 14.03873555 21080
Epoch: 2025-07-18T09:34Z
TLE epoch observation values (Epoch: 2025-07-18T09:34:46.947Z)
Latitude
-0.00004°
Longitude
-5.56589°
Altitude
900.411 km
Speed
7.393 km/s
True Right ascension
04h 58m 19s
True Declination
0° 00' 00"
Sunlit
Object was in daylight at epoch
Visualization orbit readout
Latitude
-10.80534°
Longitude
174.401°
Altitude
880.226 km
Speed
7.414 km/s
Apparent Right ascension
17h 25m 37s
Apparent Declination
-24° 29' 46"
Sunlit
Object is in full shadow
Visualization observer readout
Local Sidereal Time
06:05:40
Azimuth
31.616° NE
Elevation
-72.435°
Doppler factor
1
Orbital elements
Apogee altitude
942.159 km
Perigee altitude
812.609 km
Semi-major axis
7,255.521 km
Eccentricity
0.00893
Inclination
90.2147°
RAAN
74.5809°
Arg. of periapsis
105.7853°
True anomaly
254.3327°
Mean anomaly
255.3195°
Eccentric anomaly
254.82581°
Mean motion
3.51188 °/min
Orbital period
102.51 mins
BSTAR
0.0000010441
Loading maneuver chart data...
Loading SW <> Apogee altitude chart data...
Loading historical data...
Loading historical data...
Loading historical data...
Loading historical data...
Loading historical data...
Loading historical data...
Loading historical data...
|